Wind_Speed
12 14 13 14 17 14 9 8 8 9 7 7 8 9 8 9 9 11 11 11 11 13 15 16 16 17 16 15 13 12 12 12 14 14 12 11 11 12 13 13 14 16 16 16 17 18 18 19 19
11 12 10 9 14 11 9 10 11 10 9 10 10 8 7 9 9 10 12 14 13 13 13 12 12 13 12 10 9 9 10 10 11 12 13 13 14 14 15 16 17 18 18 18 18 18 18 18 18
9 8 9 11 13 12 11 14 16 13 12 11 9 7 7 9 10 11 13 14 12 11 11 11 11 12 14 14 12 11 9 10 10 10 12 13 15 15 14 15 16 17 18 20 19 18 19 19 20
7 9 9 11 14 13 16 17 15 12 10 8 7 4 5 8 8 9 11 12 12 11 12 12 9 11 13 12 11 12 11 10 9 8 9 10 11 10 9 9 11 13 15 16 17 18 19 21 23
9 10 11 13 16 15 13 11 10 9 5 3 1 2 3 6 7 8 10 11 13 13 11 8 6 8 8 6 6 10 13 12 10 9 8 8 9 8 8 10 12 13 15 16 16 18 20 21 24
9 11 13 14 14 13 12 9 7 6 3 2 4 6 6 7 8 10 13 14 15 13 8 2 6 7 8 8 11 12 12 13 12 10 9 9 11 11 13 15 16 17 17 16 16 18 20 22 25
10 12 17 17 16 14 12 9 8 5 1 2 5 7 9 9 8 9 10 12 15 14 11 4 2 5 8 10 13 11 10 11 11 10 11 12 14 17 18 19 19 19 19 19 20 21 23 24 26
10 11 15 16 15 14 11 9 9 6 5 4 4 7 9 13 12 10 10 11 14 15 11 8 6 3 8 11 11 10 10 10 12 12 13 14 17 19 21 21 19 19 20 21 22 23 24 25 27
8 12 16 18 16 13 10 7 6 10 9 7 7 10 11 12 14 14 11 9 11 12 12 11 10 6 3 10 14 14 13 13 14 15 16 17 19 21 21 19 18 18 20 21 22 23 25 25 27
11 14 17 14 12 12 10 9 6 8 8 8 9 12 11 13 16 18 13 8 10 12 12 11 11 10 5 5 13 14 12 13 15 16 17 19 20 19 18 17 17 17 18 18 19 20 22 23 24
11 15 13 14 14 13 11 12 10 10 10 8 8 11 11 13 15 20 18 10 9 11 12 12 12 11 9 6 5 9 13 16 18 18 19 21 22 21 19 19 19 18 18 18 20 21 22 23 24
14 14 14 15 14 15 15 15 15 14 11 10 11 13 12 13 16 19 19 14 10 9 9 9 10 10 10 10 12 14 18 19 18 21 22 21 20 18 16 17 18 18 18 20 21 22 24 24 24
20 17 17 18 17 20 19 15 15 18 17 14 16 18 16 13 17 18 18 16 11 9 8 8 7 6 8 11 13 13 13 13 15 19 20 20 20 18 19 20 18 17 18 20 21 23 24 24 25
25 21 20 22 22 23 23 19 17 21 19 18 20 23 22 17 20 18 14 15 12 8 7 8 7 6 7 9 10 11 12 12 14 17 18 18 18 18 22 22 20 19 20 22 23 25 26 28 31
28 25 24 26 28 29 26 24 25 27 24 23 24 25 25 22 22 18 13 14 13 8 7 8 8 6 6 9 10 11 12 13 15 17 18 19 20 21 23 22 21 21 23 26 28 30 32 35 37
30 28 27 30 33 33 29 24 32 32 31 30 30 27 24 23 25 22 16 15 14 12 10 9 8 5 6 9 12 13 14 15 17 17 18 18 18 19 20 21 21 22 24 27 30 34 38 41 42
31 31 32 35 37 37 33 30 39 36 34 33 33 31 24 22 26 23 17 16 14 14 13 12 9 10 11 13 15 16 17 19 20 22 22 22 22 22 22 22 22 21 25 31 33 36 40 43 45
32 35 37 39 41 39 39 40 44 41 39 37 35 33 25 20 24 22 18 19 17 16 16 14 13 14 16 16 17 18 21 23 24 26 26 27 27 27 28 28 28 29 34 37 39 40 40 44 46
36 36 38 40 42 40 42 47 49 44 42 40 37 32 30 22 25 25 24 25 23 19 19 17 19 20 20 22 22 22 25 26 26 27 28 31 31 33 35 36 35 34 37 40 42 43 45 48 48
35 36 38 39 40 42 46 48 47 43 42 42 40 33 32 26 26 28 29 31 29 27 25 24 24 24 25 27 28 28 29 31 30 31 32 35 36 36 36 39 39 40 43 44 45 48 50 52 53
35 37 37 37 40 43 47 49 45 44 41 40 40 36 31 29 29 30 30 32 35 30 29 30 30 28 30 30 31 32 33 37 37 36 37 39 41 41 40 43 46 48 49 49 50 54 54 54 57
33 36 38 39 40 42 46 47 43 47 42 39 39 38 33 31 32 31 32 34 33 32 33 34 32 31 32 33 34 36 38 40 42 42 42 44 47 46 47 49 50 52 53 54 56 56 56 56 58
32 34 36 37 38 41 46 48 42 43 42 37 36 37 37 35 37 35 33 31 33 36 37 36 36 34 33 35 38 39 40 42 45 45 48 53 55 52 53 51 46 45 50 53 54 54 56 59 60
29 29 32 34 36 41 40 42 39 30 34 33 33 33 37 38 39 35 35 35 37 37 39 39 39 36 35 37 38 40 43 45 49 49 52 57 53 50 47 47 47 50 52 54 56 57 58 58 59
27 27 28 30 32 33 32 37 35 30 32 32 31 30 31 33 36 39 40 41 40 40 42 43 40 38 35 37 38 42 44 50 56 54 48 44 43 42 39 47 53 54 54 55 57 57 57 57 59
29 30 29 27 24 21 28 32 29 30 29 27 25 24 22 23 25 30 34 39 41 44 44 42 38 36 37 41 41 40 44 46 44 45 42 39 39 40 45 50 52 53 55 56 55 55 57 60 59
26 27 25 29 28 27 28 27 29 26 25 21 20 19 18 20 22 23 28 34 36 38 38 39 40 41 44 44 41 41 43 43 42 43 40 39 41 43 47 52 54 55 54 52 55 57 59 59 57
28 24 24 25 26 26 23 20 17 19 22 18 18 21 21 20 22 25 27 29 31 33 34 38 40 39 42 44 44 42 41 39 38 40 45 42 41 45 50 53 52 50 52 55 57 58 58 56 55
29 30 29 27 26 23 21 20 23 27 25 20 18 19 22 24 28 30 30 30 31 30 32 36 37 39 44 44 42 39 36 33 39 42 39 38 41 47 50 48 49 52 55 56 57 57 55 55 57
31 31 29 27 23 24 24 23 28 31 29 25 20 20 24 28 30 29 27 28 31 34 36 37 36 38 41 36 36 40 40 41 44 41 37 39 44 45 45 47 50 53 55 56 56 55 54 55 57
Wind_Direction
206 206 212 215 205 204 200 197 186 201 209 242 269 281 298 308 293 283 288 298 301 319 317 302 294 291 289 280 268 260 254 250 249 252 254 259 266 274 276 271 263 257 256 257 257 258 258 257 257
217 213 201 193 186 182 220 202 199 219 239 259 277 292 330 331 314 303 314 323 311 310 316 314 312 306 298 284 265 248 239 236 235 239 245 252 261 267 269 266 264 262 260 259 260 263 264 263 261
219 202 178 160 163 165 192 199 217 239 252 264 284 308 341 338 328 325 331 335 326 307 299 303 312 306 300 285 264 244 231 226 222 231 246 256 264 268 274 276 273 270 265 261 259 258 260 260 260
187 177 160 152 148 166 179 200 222 240 247 266 285 314 338 337 339 348 348 351 350 331 305 291 296 301 297 284 268 241 213 215 222 236 255 265 270 277 282 282 278 276 270 263 261 259 257 260 261
171 159 155 148 152 164 179 193 205 218 223 255 280 43 12 359 13 14 6 8 1 344 322 291 265 278 283 263 267 246 244 244 248 250 251 258 266 276 282 286 286 283 277 271 267 265 265 267 267
161 157 155 152 169 176 192 200 210 229 190 107 94 84 48 25 17 18 9 8 4 356 350 255 232 245 238 257 271 267 258 246 247 244 249 259 266 272 279 285 286 287 286 281 277 277 275 271 271
168 168 163 172 181 185 203 209 210 229 217 67 81 52 45 39 15 14 11 11 18 11 6 6 252 215 209 230 256 254 240 239 246 254 261 265 272 278 281 284 283 282 278 275 274 278 278 276 275
180 173 173 186 195 200 212 219 223 250 297 343 10 360 16 30 14 3 15 19 24 20 16 20 1 275 244 246 243 247 251 262 265 270 275 279 282 285 289 289 285 280 277 276 278 280 277 276 277
205 190 192 200 205 210 222 234 256 282 301 313 337 340 348 4 9 359 8 20 20 19 15 22 27 26 276 229 225 237 253 265 266 268 276 287 290 289 289 290 291 288 285 283 282 282 279 278 279
216 207 208 207 213 215 220 234 273 285 293 302 324 330 341 346 4 355 356 4 5 6 5 12 20 29 24 226 228 241 267 284 287 283 284 292 291 285 285 292 292 293 294 292 287 284 281 281 281
224 222 218 215 217 222 230 245 269 309 315 300 294 308 329 332 354 347 346 342 347 356 358 358 5 22 27 13 314 282 282 289 292 289 291 296 292 288 287 289 293 298 298 294 291 288 285 284 286
236 237 236 233 228 231 236 247 265 285 302 298 305 302 317 321 334 331 332 329 331 335 345 359 1 3 352 334 317 300 296 298 294 289 290 293 299 300 306 309 302 295 296 295 291 288 285 285 286
241 242 241 240 239 239 243 247 261 277 296 312 307 305 302 302 308 314 316 318 309 311 316 332 346 345 325 315 314 312 310 309 301 292 295 300 302 291 299 305 299 293 289 287 285 285 284 281 282
243 245 248 248 245 247 255 265 271 268 277 288 294 290 284 279 289 297 306 313 304 292 292 301 310 318 334 334 326 320 316 310 304 300 298 300 299 293 288 286 285 284 287 291 292 291 288 288 291
246 246 246 248 247 248 255 267 271 267 271 274 285 287 282 274 277 277 283 294 303 297 284 295 296 310 342 344 330 319 307 300 302 301 296 292 291 289 288 288 289 292 298 300 298 294 292 292 292
245 245 246 244 246 250 252 254 263 264 265 269 278 282 277 267 262 261 263 279 298 299 293 290 280 283 310 320 316 311 307 307 310 309 303 296 296 299 300 299 299 301 306 306 303 297 293 290 289
245 243 242 243 247 248 253 248 255 262 267 269 275 279 273 255 254 255 253 266 284 288 289 291 278 281 286 294 301 302 301 305 307 309 310 305 302 302 302 301 299 296 303 307 305 300 297 291 286
241 239 237 241 250 249 252 252 258 262 266 271 274 275 271 252 243 250 249 253 266 275 281 287 286 289 292 295 291 294 296 302 306 310 308 307 302 298 296 295 292 291 300 305 305 300 299 295 288
240 242 240 242 247 252 252 253 259 261 264 269 272 269 268 255 252 254 252 253 253 265 277 282 288 292 299 302 298 294 295 296 301 307 306 306 303 298 292 287 288 291 293 298 300 301 299 296 290
243 242 243 244 248 251 252 254 257 260 261 265 270 269 265 263 265 263 256 257 256 259 265 270 276 283 295 299 297 297 294 295 299 301 303 304 299 295 290 285 286 288 290 293 296 298 302 298 292
251 250 249 248 248 252 255 259 262 264 262 265 268 272 269 258 256 259 258 263 257 258 263 270 272 279 291 295 294 293 295 299 300 301 298 299 299 289 285 289 289 289 289 292 295 297 296 293 292
253 252 252 251 250 251 256 259 262 267 267 267 270 274 272 263 261 263 264 265 259 259 264 271 273 280 289 293 294 296 298 298 296 298 300 300 296 291 287 296 301 298 293 292 292 295 295 294 293
259 257 256 256 255 254 257 263 264 268 271 271 270 270 269 266 268 271 267 259 260 261 266 273 277 282 288 293 294 294 297 301 297 293 296 296 295 291 288 293 298 298 291 289 291 294 295 294 294
264 263 261 259 258 258 260 266 269 273 273 270 268 265 264 264 264 259 257 259 264 267 270 273 277 280 287 292 291 292 295 302 302 299 299 295 293 292 292 292 293 294 293 293 293 293 293 294 295
262 258 258 260 260 266 267 265 267 266 273 274 272 269 263 260 258 256 256 260 264 268 272 275 278 281 286 286 287 293 298 305 302 296 294 296 300 299 295 290 291 293 294 294 295 295 296 295 295
262 260 257 257 260 263 263 268 268 269 272 273 271 270 269 265 260 257 257 260 263 268 274 278 281 283 286 287 288 292 297 303 301 295 294 295 296 294 292 292 293 294 297 297 296 295 294 293 293
260 266 267 263 259 257 261 269 275 275 274 271 262 260 264 270 274 275 271 267 267 267 269 273 276 277 283 288 289 295 297 298 301 295 298 301 298 294 294 294 295 298 297 295 295 294 292 291 292
261 267 268 272 270 264 263 267 269 269 274 271 259 252 262 269 275 280 275 277 276 274 273 272 273 278 286 287 288 293 290 288 295 295 297 297 295 294 295 297 298 296 295 296 294 291 291 294 295
255 262 265 262 257 260 264 265 265 269 277 277 271 264 269 279 289 290 284 282 280 277 278 280 281 287 287 286 286 290 292 300 301 304 300 295 294 296 296 295 295 296 296 294 293 294 296 297 296
241 248 257 261 265 269 267 265 264 266 274 281 273 268 277 287 295 295 293 293 289 288 284 280 284 289 289 289 285 299 307 306 305 301 296 296 298 297 295 294 296 296 295 295 295 296 297 296 296
Height
5894 5895 5897 5899 5902 5906 5909 5911 5909 5907 5906 5905 5904 5904 5904 5903 5901 5901 5897 5895 5894 5893 5891 5890 5890 5890 5890 5889 5890 5890 5891 5891 5891 5892 5892 5893 5893 5893 5893 5893 5893 5894 5895 5895 5895 5895 5895 5895 5896
5892 5894 5896 5898 5901 5907 5911 5909 5907 5906 5905 5904 5903 5903 5902 5899 5897 5896 5894 5893 5891 5890 5889 5889 5889 5888 5887 5887 5887 5888 5888 5888 5889 5889 5889 5889 5890 5890 5889 5888 5889 5890 5891 5891 5891 5891 5891 5892 5893
5892 5894 5896 5898 5901 5907 5910 5907 5905 5904 5903 5903 5902 5902 5901 5897 5895 5894 5892 5890 5889 5888 5887 5887 5887 5886 5886 5885 5885 5884 5884 5885 5885 5885 5886 5886 5888 5888 5887 5886 5886 5886 5886 5887 5887 5886 5887 5887 5888
5892 5895 5898 5900 5902 5904 5904 5904 5904 5903 5902 5902 5902 5901 5899 5896 5894 5893 5891 5888 5886 5884 5884 5883 5883 5883 5883 5883 5882 5882 5882 5883 5883 5883 5883 5884 5885 5885 5884 5883 5883 5883 5883 5883 5883 5883 5884 5883 5883
5893 5895 5899 5901 5902 5903 5903 5903 5903 5902 5902 5902 5901 5900 5898 5896 5894 5892 5889 5886 5884 5882 5880 5879 5880 5880 5880 5881 5882 5883 5883 5883 5882 5881 5881 5881 5882 5882 5882 5883 5882 5882 5881 5880 5880 5880 5880 5879 5879
5893 5896 5899 5902 5903 5903 5902 5902 5902 5902 5902 5902 5902 5900 5898 5895 5892 5891 5888 5885 5883 5881 5879 5877 5876 5877 5878 5879 5880 5881 5881 5880 5880 5879 5880 5880 5880 5880 5880 5880 5879 5879 5879 5879 5878 5877 5877 5876 5875
5893 5896 5897 5900 5901 5903 5902 5901 5902 5901 5901 5901 5900 5899 5897 5895 5892 5890 5888 5886 5883 5881 5879 5877 5876 5876 5876 5877 5877 5878 5879 5878 5878 5878 5879 5879 5879 5878 5877 5877 5877 5877 5877 5876 5874 5873 5872 5871 5870
5892 5896 5897 5898 5900 5902 5901 5901 5902 5901 5901 5900 5899 5898 5897 5894 5892 5890 5889 5886 5884 5882 5880 5877 5876 5875 5875 5874 5875 5877 5877 5877 5877 5877 5877 5877 5877 5876 5875 5874 5873 5872 5871 5870 5868 5867 5866 5866 5865
5891 5895 5896 5897 5898 5900 5900 5900 5901 5900 5899 5898 5898 5897 5896 5893 5891 5889 5888 5886 5884 5883 5881 5878 5876 5874 5872 5872 5873 5874 5874 5874 5874 5875 5875 5874 5874 5872 5871 5869 5867 5866 5864 5864 5863 5862 5861 5861 5860
5890 5892 5894 5894 5895 5897 5898 5898 5899 5898 5898 5897 5897 5896 5894 5891 5890 5888 5888 5886 5884 5882 5880 5878 5875 5873 5872 5871 5871 5872 5871 5871 5871 5872 5872 5871 5870 5868 5866 5864 5863 5861 5860 5859 5858 5857 5857 5856 5855
5887 5889 5889 5891 5893 5894 5895 5895 5896 5896 5896 5896 5896 5895 5893 5890 5889 5888 5887 5886 5884 5882 5880 5877 5874 5872 5871 5871 5871 5870 5869 5869 5869 5869 5868 5866 5864 5863 5862 5860 5858 5857 5856 5855 5854 5853 5852 5851 5849
5884 5885 5886 5888 5890 5891 5892 5893 5893 5893 5895 5894 5893 5893 5892 5889 5888 5887 5886 5885 5882 5881 5879 5875 5872 5870 5869 5868 5868 5867 5866 5866 5865 5864 5864 5862 5860 5858 5856 5854 5853 5851 5850 5849 5848 5847 5846 5844 5842
5880 5883 5884 5884 5887 5888 5889 5891 5891 5890 5889 5890 5890 5890 5890 5888 5885 5885 5883 5882 5881 5879 5877 5874 5871 5869 5868 5867 5865 5864 5864 5863 5862 5861 5859 5858 5856 5854 5853 5851 5849 5847 5846 5844 5842 5841 5839 5837 5835
5876 5879 5881 5881 5882 5883 5885 5886 5887 5886 5887 5887 5888 5888 5887 5887 5883 5883 5880 5879 5879 5878 5876 5873 5871 5868 5866 5865 5864 5862 5861 5859 5858 5857 5855 5853 5851 5850 5848 5846 5844 5842 5840 5838 5836 5834 5832 5830 5828
5872 5876 5878 5878 5878 5878 5881 5882 5882 5881 5883 5884 5884 5884 5884 5883 5880 5880 5877 5875 5875 5874 5873 5871 5869 5867 5865 5863 5862 5860 5858 5857 5855 5853 5851 5849 5847 5845 5843 5841 5838 5836 5834 5832 5829 5827 5824 5821 5818
5869 5872 5875 5875 5873 5873 5879 5882 5875 5876 5878 5880 5880 5880 5880 5879 5876 5875 5874 5872 5872 5871 5869 5868 5867 5865 5863 5861 5859 5857 5855 5854 5852 5849 5847 5844 5842 5840 5837 5835 5833 5830 5828 5826 5823 5820 5817 5813 5810
5864 5868 5870 5870 5868 5869 5872 5876 5869 5870 5871 5873 5875 5875 5875 5874 5871 5871 5871 5869 5868 5866 5866 5865 5864 5862 5861 5859 5856 5855 5853 5851 5848 5846 5843 5840 5838 5835 5832 5829 5826 5823 5821 5819 5816 5812 5809 5804 5800
5858 5859 5862 5863 5860 5863 5865 5866 5861 5863 5865 5866 5868 5869 5870 5869 5867 5866 5867 5866 5863 5862 5862 5862 5860 5859 5858 5856 5854 5852 5849 5846 5844 5841 5838 5835 5833 5830 5826 5824 5821 5817 5814 5811 5808 5804 5799 5794 5789
5847 5850 5854 5856 5855 5856 5858 5855 5852 5857 5858 5860 5860 5862 5863 5864 5862 5861 5862 5860 5859 5858 5857 5857 5856 5854 5852 5851 5849 5846 5844 5841 5839 5836 5834 5831 5828 5824 5820 5817 5813 5810 5806 5802 5798 5794 5789 5783 5777
5840 5842 5845 5848 5850 5848 5847 5845 5846 5849 5851 5853 5852 5855 5857 5857 5855 5856 5855 5853 5854 5853 5852 5851 5850 5848 5846 5844 5842 5839 5837 5834 5832 5830 5827 5824 5821 5818 5814 5810 5806 5801 5797 5793 5788 5783 5776 5770 5764
5834 5836 5838 5840 5840 5838 5838 5838 5841 5840 5843 5845 5845 5847 5849 5850 5849 5849 5849 5848 5846 5846 5845 5843 5842 5841 5839 5837 5834 5831 5829 5827 5824 5821 5819 5816 5812 5809 5806 5802 5797 5792 5787 5782 5776 5770 5763 5757 5749
5826 5827 5829 5830 5832 5831 5830 5831 5833 5831 5835 5837 5838 5839 5841 5842 5842 5842 5841 5840 5839 5839 5837 5834 5833 5832 5830 5828 5825 5822 5820 5818 5814 5811 5808 5805 5802 5798 5794 5790 5785 5780 5774 5769 5762 5756 5748 5741 5733
5819 5820 5821 5822 5823 5823 5822 5822 5827 5824 5827 5829 5830 5831 5832 5834 5834 5833 5833 5833 5832 5831 5829 5827 5825 5824 5822 5820 5816 5814 5810 5807 5804 5800 5796 5793 5789 5785 5781 5776 5771 5766 5759 5753 5746 5740 5733 5725 5719
5812 5813 5813 5813 5814 5813 5817 5817 5818 5819 5817 5821 5822 5824 5824 5825 5825 5825 5825 5825 5823 5821 5819 5818 5817 5815 5814 5811 5807 5803 5800 5797 5793 5788 5784 5780 5775 5771 5767 5763 5758 5752 5745 5738 5732 5725 5719 5711 5704
5805 5806 5807 5806 5806 5807 5810 5808 5811 5812 5810 5813 5813 5814 5815 5816 5817 5818 5817 5817 5816 5812 5810 5809 5808 5806 5804 5800 5796 5794 5790 5786 5782 5777 5771 5767 5762 5758 5753 5750 5744 5738 5731 5724 5718 5712 5705 5697 5689
5797 5800 5803 5804 5805 5806 5801 5800 5805 5804 5804 5806 5806 5806 5807 5807 5808 5809 5809 5809 5807 5804 5800 5799 5796 5795 5794 5792 5788 5784 5781 5775 5770 5766 5759 5754 5750 5746 5742 5737 5731 5724 5717 5711 5705 5697 5690 5682 5674
5792 5793 5796 5796 5796 5796 5797 5797 5797 5798 5798 5800 5800 5801 5801 5800 5800 5800 5800 5798 5796 5794 5793 5792 5789 5788 5785 5783 5779 5777 5770 5765 5759 5755 5749 5744 5738 5734 5729 5724 5717 5710 5703 5696 5690 5681 5674 5666 5660
5787 5789 5789 5789 5789 5790 5793 5793 5793 5792 5792 5794 5794 5795 5795 5794 5793 5793 5790 5787 5786 5784 5783 5782 5779 5778 5776 5772 5767 5763 5758 5753 5748 5745 5740 5732 5726 5721 5715 5710 5703 5696 5689 5683 5675 5666 5659 5653 5646
5782 5782 5783 5784 5786 5786 5787 5791 5789 5787 5788 5789 5789 5789 5788 5787 5787 5785 5783 5780 5777 5775 5774 5773 5772 5769 5764 5759 5754 5751 5748 5744 5739 5733 5727 5720 5714 5709 5703 5697 5690 5684 5677 5669 5661 5654 5645 5640 5634
5776 5776 5777 5778 5779 5779 5779 5784 5781 5780 5781 5782 5782 5782 5781 5779 5779 5777 5775 5773 5770 5768 5766 5763 5761 5758 5754 5748 5743 5740 5736 5731 5726 5720 5715 5709 5702 5696 5691 5684 5677 5671 5663 5656 5648 5641 5632 5625 5619